Location: Unspecified
(0.0000°N, 0.0000°E)
Time: 08:29:34
(UTC+00:00)

Altair 2 - Pass Details

Date: 03 November 2024
Orbit: 1016 x 1125 km, 90.0° (Epoch: 10 December)

Event Time Altitude Azimuth Distance (km) Brightness Sun altitude
Exits shadow 03:40:58 32° 212° (SSW) 1,814 9.7 -29.5°
Drops below altitude 10° 03:44:32 10° 197° (SSW) 2,978 11.0 -28.6°
Sets 03:47:10 0° 193° (SSW) 3,926 11.7 -28.0°
